Location: ??????????
(54.8537°N, 38.8755°E)
Time: 01:22:41
(UTC+00:00)

Tiros 1 - Pass Details

Date: 16 September 2024
Orbit: 623 x 654 km, 48.4° (Epoch: 15 October)

Event Time Altitude Azimuth Distance (km) Brightness Sun altitude
Rises 11:56:59 0° 192° (SSW) 2,888 11.3 28.5°
Reaches altitude 10° 12:01:05 10° 156° (SSE) 1,989 10.0 28.1°
Maximum altitude 12:02:15 11° 141° (SE) 1,931 9.7 28.0°
Drops below altitude 10° 12:03:27 10° 126° (SE) 1,993 9.6 27.8°
Sets 12:07:33 0° 90° (E) 2,911 10.1 27.4°
